STARLINK-37466, 69038

Orbit data source: Space-Track

STARLINK-37466, 69038 is a payload satellite owned by SpaceX/Seattle (US) in SSO that was launched on Wed, 06 May 2026 UTC via an FALCON 9 launch vehicle from the Air Force Western Test Range (AFWTR). Payload-class satellites include a variety of spacecraft equipped with specific instruments for various scientific and technological missions. These include communications satellites like Starlink; space stations such as the ISS; scientific satellites like the Hubble; Earth observation satellites from companies like Planet Labs, Umbra, and HawkEye 360; GPS; miniature CubeSats for education and research; and military/defense satellites.

Loading next visibility...
Identifier
69038, 2026-101P
Orbit
SSO
Country
Flag of USUS
Related business
Manufacturer
SpaceX/Seattle
Mission
Operational Commercial Communications
Bus & Motor
STARLINK V2MO, Unknown motor
Mass
575 kg wet, ~530 kg dry
Launch date (UTC)
2026-05-06 (3 months ago)
Launch vehicle
FALCON 9
Launch site
Air Force Western Test Range (AFWTR)
Object type
Payload
Rocket body
Debris
Shape & HBR
Box + 2 Pan, 17.7 m
Radar Cross Section
36.964 m², Large (>1 m²)

Expand to show TLE details & history
Last TLE update: 14 hours ago

TLE from 14 hours ago
0 STARLINK-37466
1 69038U 26101P   26206.52572234  .00030124  00000-0  93154-3 0  9997
2 69038  97.2861  60.9086 0002452  72.7631 287.3880 15.33448878 12458
Epoch: 2026-07-25T12:37Z
TLE epoch observation values (Epoch: 2026-07-25T12:37:02.410Z)
Latitude
-0°
Longitude
-71.58819°
Altitude
468.142 km
Speed
7.632 km/s
True Right ascension
04h 03m 38s
True Declination
0° 00' 00"
Sunlit
Object was in daylight at epoch
Visualization orbit readout
Latitude
Unknown
Longitude
Unknown
Altitude
Unknown
Speed
Unknown
Apparent Right ascension
Unknown
Apparent Declination
Unknown
Sunlit
N/A
Visualization observer readout
Local Sidereal Time
16:19:30
Azimuth
Unknown
Elevation
Unknown
Doppler factor
Unknown
Orbital elements
Apogee altitude
464.152 km
Perigee altitude
460.797 km
Semi-major axis
6,840.611 km
Eccentricity
0.00025
Inclination
97.2861°
RAAN
60.9086°
Arg. of periapsis
72.7631°
True anomaly
287.36118°
Mean anomaly
287.388°
Eccentric anomaly
287.37459°
Mean motion
3.8362 °/min
Orbital period
93.84 mins
BSTAR
0.00093154
Loading maneuver chart data...
Computing Atmospheric mass density...
Loading historical data...
Loading historical data...
Loading historical data...
Loading historical data...
Loading historical data...
Loading historical data...
Loading historical data...

Documentation

Showing up to 5 results
|